Regional Weather Roundup
Issued by NWS

Home | Current Version | Previous Version | Text Only | Print | Product List | Glossary On
Versions: 1 2 3 4 5 6 7 8 9 10 11 12 13 14 15 16 17 18 19 20 21 22 23 24 25 26 27 28 29 30 31 32 33 34 35 36 37 38 39 40 41 42 43 44 45 46 47 48 49 50
000
ASUS44 KFWD 251001
RWRTX
NORTH TEXAS HOURLY WEATHER ROUNDUP
NATIONAL WEATHER SERVICE FORT WORTH TX
500 AM CDT THU AUG 25 2016

NOTE: "FAIR" INDICATES FEW OR NO CLOUDS BELOW 12,000 FEET WITH NO
SIGNIFICANT WEATHER AND/OR OBSTRUCTIONS TO VISIBILITY.

TXZ118-119-251100-
DALLAS/FORT WORTH METROPLEX

CITY           SKY/WX    TMP DP  RH WIND       PRES   REMARKS
DFW AIRPORT    PTCLDY    80  71  74 SW12      30.04S
DALLAS LOVE    PTCLDY    80  72  76 SW6       30.04S
FTW MEACHAM    CLEAR     77  71  82 S6        30.05S
DAL-EXECUTIVE  CLEAR     77  74  90 VRB5      30.04S
FTW-ALLIANCE   PTCLDY    74  70  87 S5        30.04S
FTW-NAS-JRB    CLEAR     77  70  79 S3        30.05S
ARLINGTON      CLEAR     77  72  84 S3        30.05R
GRAND PRAIRIE  CLEAR     77  71  81 SW5       30.06R
ADDISON        CLEAR     80  73  81 SW3       30.07R
MESQUITE       CLEAR     74  74 100 CALM      30.04S
LANCASTER      CLEAR     76  73  88 S3        30.05S
$$

TXZ091>094-102>105-117-120-121-131>134-251100-
NORTH CENTRAL TEXAS

CITY           SKY/WX    TMP DP  RH WIND       PRES   REMARKS
SHRMAN/DENISON NOT AVBL
GAINESVILLE      N/A     72  69  89 S5        30.07S
BRIDGEPORT     CLEAR     73  71  94 S3        30.07S
DECATUR        CLEAR     75  69  80 SW5       30.07R
DENTON         CLEAR     71  69  93 CALM      30.04S
MCKINNEY       CLEAR     75  72  90 S6        30.04S
GREENVILLE     CLEAR     77  73  88 S3        30.06R
ROCKWALL       CLEAR     76  74  94 SW12      30.04S
TERRELL        CLEAR     76  74  93 S6        30.05R
WAXAHACHIE     CLEAR     74  74 100 S5        30.06S
CLEBURNE       CLEAR     73  73 100 SW3       30.08S
$$

TXZ083>090-098>101-113>116-127>130-139>142-154-155-251100-
WESTERN NORTH TEXAS

CITY           SKY/WX    TMP DP  RH WIND       PRES   REMARKS
WICHITA FALLS  CLEAR     76  67  73 SW9       30.03R
WF-KICKAPOO    CLEAR     76  67  73 SW5       30.05R
VERNON         CLEAR     76  64  66 SW6       30.05R
ABILENE        CLEAR     74  68  81 S8        30.08S
ABILENE-DYESS  CLEAR     74  67  78 S10       30.06S
CISCO          CLEAR     72  68  88 S14       30.09S
MINERAL WELLS  CLEAR     71  68  90 SE6       30.04F
STEPHENVILLE   CLEAR     72  69  88 CALM      30.10S
COMANCHE       CLEAR     73  70  89 S12       30.07F
BROWNWOOD      MOCLDY    68  68 100 SE6       30.08F
COLEMAN        CLEAR     71  66  85 S5        30.08F
$$

TXZ143>147-156>162-174-175-251100-
CENTRAL TEXAS

CITY           SKY/WX    TMP DP  RH WIND       PRES   REMARKS
WACO           CLEAR     75  73  93 MISG      30.05S
WACO-MCGREGOR  CLEAR     75  73  93 S6          N/A
HILLSBORO      CLEAR     73  71  93 S5        30.06S
CORSICANA      CLEAR     77  73  87 S5        30.06S
MEXIA          CLEAR     75  75  98 S6        30.05S
HEARNE         CLEAR     75  74  98 CALM      30.06S
CAMERON        CLEAR     75  73  94 S6        30.05S
TEMPLE         CLEAR     74  73  97 S7        30.07R
KILLEEN        MOCLDY    74  73  94 S6        30.06S
KILLEEN-SKYLRK CLEAR     74  73  97 S7        30.07R
FORT HOOD      CLEAR     73  72  94 SW7       30.05R
HAMILTON       CLEAR     72  72 100 S3        30.09S
$$

TXZ095>097-106>112-122>126-135>138-148>153-164>167-251100-
EAST TEXAS

CITY           SKY/WX    TMP DP  RH WIND       PRES   REMARKS
PARIS          PTCLDY    75  72  88 S3        30.06R
MOUNT PLEASANT PTCLDY    75  75 100 CALM      30.07S
GILMER         CLOUDY    76  74  95 CALM      30.06S
TYLER          CLEAR     77  75  93 S7        30.06S
LONGVIEW       PTCLDY    76  75  97 S5        30.05F
MARSHALL       PTCLDY    73  70  93 CALM      30.09S
ATHENS         CLEAR     73  73 100 S6        30.04F
PALESTINE      CLEAR     76  76  98 SE3       30.07F
JACKSONVILLE   CLEAR     76  75  96 S5        30.09F
HENDERSON      PTCLDY    74  74  99 CALM      30.08S
CENTER         MOSUNNY   78  76  95 CALM      30.09R
NACOGDOCHES    PTCLDY   N/A N/A N/A E5        30.06R
LUFKIN         CLEAR     74  73  97 CALM      30.07S
$$

SUPPLEMENTAL OBSERVATIONS (CENTRAL)

CITY           SKY/WX    TMP DP  RH WIND       PRES   REMARKS
$$

SUPPLEMENTAL OBSERVATIONS (WEST)

CITY           SKY/WX    TMP DP  RH WIND       PRES   REMARKS
$$

SUPPLEMENTAL OBSERVATIONS (EAST)

CITY           SKY/WX    TMP DP  RH WIND       PRES   REMARKS
$$

SUPPLEMENTAL OBSERVATIONS ARE A COLLECTION OF AUTOMATED INSTRUMENTS
THAT ARE MAINTAINED BY A VARIETY OF FEDERAL AND STATE AGENCIES.
CERTAIN ELEMENTS...SUCH AS HUMIDITY VALUES AND SUSTAINED WIND
SPEEDS...MAY BE APPROXIMATED.





USA.gov is the U.S. government's official web portal to all federal, state and local government web resources and services.